QPF
0.05 0.05 0.04 0.05 0.04 0.04 0.04 0.04 0.04 0.04 0.04 0.05 0.06 0.06 0.07 0.07 0.09 0.09 0.10 0.09 0.10 0.12 0.14 0.15 0.17 0.19 0.20 0.20 0.19 0.18 0.18 0.18 0.16 0.09 0.05 0.05 0.05 0.05 0.05 0.04 0.03 0.02 0.02
0.06 0.06 0.05 0.06 0.07 0.06 0.05 0.05 0.05 0.04 0.04 0.04 0.05 0.06 0.06 0.07 0.07 0.07 0.08 0.09 0.09 0.10 0.11 0.13 0.14 0.16 0.18 0.20 0.21 0.21 0.20 0.20 0.20 0.15 0.09 0.07 0.07 0.06 0.06 0.06 0.05 0.03 0.02
0.05 0.05 0.06 0.06 0.07 0.07 0.08 0.08 0.07 0.06 0.05 0.05 0.06 0.06 0.05 0.05 0.05 0.06 0.06 0.07 0.08 0.09 0.10 0.11 0.12 0.15 0.17 0.18 0.20 0.20 0.20 0.20 0.20 0.18 0.13 0.08 0.07 0.07 0.07 0.06 0.05 0.04 0.03
0.04 0.03 0.04 0.05 0.05 0.05 0.05 0.06 0.06 0.05 0.04 0.05 0.05 0.05 0.05 0.05 0.05 0.05 0.06 0.07 0.08 0.08 0.09 0.10 0.11 0.13 0.14 0.16 0.18 0.19 0.18 0.18 0.19 0.20 0.16 0.12 0.10 0.10 0.10 0.10 0.08 0.05 0.04
0.04 0.03 0.03 0.04 0.03 0.03 0.03 0.03 0.04 0.04 0.05 0.05 0.04 0.04 0.04 0.04 0.04 0.04 0.05 0.06 0.06 0.07 0.07 0.07 0.09 0.11 0.12 0.14 0.17 0.19 0.20 0.22 0.22 0.21 0.19 0.15 0.13 0.12 0.12 0.10 0.09 0.08 0.06
0.04 0.03 0.03 0.03 0.03 0.03 0.03 0.03 0.03 0.03 0.04 0.04 0.04 0.04 0.04 0.04 0.05 0.05 0.05 0.06 0.06 0.06 0.06 0.06 0.07 0.09 0.11 0.12 0.14 0.15 0.18 0.19 0.19 0.18 0.17 0.13 0.10 0.09 0.09 0.09 0.10 0.10 0.09
0.03 0.04 0.04 0.04 0.04 0.05 0.06 0.06 0.06 0.06 0.06 0.05 0.06 0.06 0.05 0.04 0.05 0.04 0.04 0.04 0.04 0.05 0.05 0.05 0.05 0.06 0.07 0.06 0.08 0.10 0.11 0.13 0.14 0.13 0.12 0.09 0.07 0.06 0.07 0.09 0.09 0.09 0.08
0.03 0.04 0.05 0.05 0.05 0.06 0.06 0.07 0.08 0.08 0.07 0.07 0.07 0.07 0.08 0.06 0.05 0.04 0.04 0.03 0.03 0.04 0.04 0.05 0.04 0.04 0.04 0.04 0.05 0.06 0.07 0.08 0.10 0.10 0.09 0.06 0.05 0.05 0.06 0.07 0.09 0.11 0.11
0.02 0.03 0.03 0.03 0.04 0.05 0.06 0.07 0.08 0.07 0.07 0.07 0.06 0.06 0.07 0.06 0.06 0.05 0.04 0.03 0.03 0.03 0.04 0.04 0.05 0.05 0.06 0.06 0.05 0.05 0.06 0.07 0.08 0.10 0.10 0.09 0.08 0.08 0.09 0.11 0.14 0.16 0.14
0.01 0.01 0.01 0.01 0.01 0.02 0.02 0.03 0.04 0.04 0.04 0.04 0.04 0.04 0.05 0.05 0.05 0.05 0.04 0.03 0.03 0.03 0.03 0.03 0.04 0.04 0.05 0.05 0.05 0.05 0.06 0.06 0.06 0.08 0.10 0.12 0.11 0.11 0.12 0.10 0.11 0.12 0.12
0.00 0.00 0.00 0.00 0.00 0.00 0.00 0.01 0.01 0.01 0.01 0.01 0.01 0.01 0.01 0.01 0.02 0.02 0.03 0.03 0.03 0.03 0.02 0.02 0.02 0.03 0.03 0.03 0.03 0.03 0.04 0.04 0.05 0.06 0.07 0.09 0.10 0.12 0.13 0.12 0.10 0.10 0.11
0.00 0.00 0.00 0.00 0.00 0.00 0.00 0.00 0.00 0.00 0.00 0.00 0.00 0.00 0.00 0.00 0.00 0.00 0.01 0.01 0.02 0.02 0.01 0.01 0.01 0.02 0.03 0.03 0.04 0.04 0.04 0.04 0.04 0.07 0.09 0.11 0.12 0.12 0.11 0.11 0.11 0.10 0.10
0.00 0.00 0.00 0.00 0.00 0.00 0.00 0.00 0.00 0.00 0.00 0.00 0.00 0.00 0.00 0.00 0.00 0.00 0.00 0.01 0.01 0.01 0.01 0.01 0.01 0.02 0.02 0.03 0.05 0.07 0.07 0.05 0.05 0.07 0.09 0.11 0.11 0.10 0.10 0.11 0.12 0.12 0.12
0.00 0.00 0.00 0.00 0.00 0.00 0.00 0.00 0.00 0.00 0.00 0.00 0.00 0.00 0.00 0.00 0.00 0.00 0.00 0.00 0.01 0.01 0.01 0.01 0.01 0.01 0.02 0.03 0.04 0.06 0.08 0.08 0.08 0.08 0.08 0.09 0.09 0.10 0.11 0.12 0.12 0.13 0.14
0.00 0.00 0.00 0.00 0.00 0.00 0.00 0.00 0.00 0.00 0.00 0.00 0.00 0.00 0.00 0.01 0.00 0.01 0.01 0.01 0.01 0.01 0.01 0.01 0.01 0.01 0.02 0.03 0.04 0.05 0.07 0.09 0.10 0.09 0.10 0.10 0.11 0.11 0.11 0.11 0.12 0.12 0.12
0.00 0.00 0.00 0.00 0.00 0.00 0.00 0.00 0.00 0.00 0.00 0.00 0.00 0.00 0.00 0.00 0.01 0.01 0.01 0.01 0.01 0.01 0.01 0.01 0.01 0.02 0.02 0.03 0.04 0.05 0.07 0.08 0.10 0.11 0.11 0.11 0.12 0.12 0.11 0.11 0.11 0.11 0.12
0.00 0.00 0.00 0.00 0.00 0.00 0.00 0.00 0.00 0.00 0.00 0.00 0.00 0.00 0.00 0.00 0.00 0.00 0.01 0.01 0.01 0.01 0.01 0.01 0.02 0.02 0.03 0.03 0.04 0.05 0.06 0.07 0.09 0.09 0.10 0.11 0.12 0.13 0.13 0.12 0.11 0.11 0.12
0.00 0.00 0.00 0.00 0.00 0.00 0.00 0.00 0.00 0.00 0.00 0.00 0.00 0.00 0.00 0.00 0.00 0.00 0.00 0.00 0.00 0.00 0.01 0.01 0.02 0.03 0.03 0.04 0.05 0.06 0.06 0.06 0.07 0.08 0.08 0.09 0.11 0.12 0.13 0.13 0.12 0.11 0.11
0.00 0.00 0.00 0.00 0.00 0.00 0.00 0.00 0.00 0.00 0.00 0.00 0.00 0.00 0.00 0.00 0.00 0.00 0.00 0.00 0.01 0.01 0.01 0.01 0.02 0.03 0.03 0.04 0.05 0.06 0.06 0.06 0.06 0.06 0.07 0.07 0.08 0.10 0.11 0.11 0.12 0.11 0.11
0.00 0.00 0.00 0.00 0.00 0.00 0.00 0.00 0.00 0.00 0.00 0.00 0.00 0.00 0.00 0.00 0.00 0.00 0.00 0.01 0.01 0.01 0.01 0.01 0.02 0.02 0.03 0.04 0.04 0.05 0.05 0.05 0.06 0.06 0.06 0.06 0.07 0.08 0.08 0.09 0.10 0.10 0.10
0.00 0.00 0.00 0.00 0.00 0.00 0.00 0.00 0.00 0.00 0.00 0.00 0.00 0.00 0.01 0.01 0.01 0.01 0.01 0.01 0.01 0.01 0.01 0.01 0.02 0.02 0.03 0.04 0.04 0.05 0.05 0.05 0.05 0.05 0.05 0.05 0.06 0.07 0.07 0.08 0.08 0.08 0.09
0.00 0.00 0.00 0.00 0.00 0.00 0.00 0.00 0.00 0.00 0.00 0.00 0.00 0.00 0.00 0.00 0.01 0.01 0.01 0.01 0.01 0.01 0.02 0.02 0.02 0.02 0.03 0.04 0.04 0.05 0.05 0.05 0.05 0.05 0.05 0.05 0.05 0.06 0.06 0.07 0.07 0.07 0.08
0.00 0.00 0.00 0.00 0.00 0.00 0.00 0.00 0.00 0.00 0.00 0.00 0.00 0.00 0.00 0.00 0.01 0.01 0.01 0.01 0.01 0.01 0.02 0.02 0.02 0.02 0.02 0.02 0.03 0.04 0.05 0.05 0.05 0.05 0.05 0.05 0.05 0.05 0.05 0.06 0.06 0.06 0.06
0.00 0.00 0.00 0.00 0.00 0.00 0.00 0.00 0.00 0.00 0.00 0.00 0.00 0.00 0.00 0.01 0.01 0.01 0.01 0.01 0.01 0.01 0.01 0.02 0.02 0.02 0.02 0.02 0.02 0.03 0.03 0.04 0.05 0.05 0.05 0.05 0.05 0.04 0.04 0.05 0.05 0.05 0.06
0.00 0.00 0.00 0.00 0.00 0.00 0.00 0.00 0.00 0.00 0.00 0.00 0.00 0.00 0.00 0.00 0.00 0.01 0.01 0.01 0.01 0.01 0.01 0.01 0.01 0.02 0.02 0.02 0.02 0.02 0.03 0.03 0.04 0.05 0.05 0.05 0.05 0.04 0.04 0.04 0.04 0.04 0.05
0.00 0.00 0.00 0.00 0.00 0.00 0.00 0.00 0.00 0.00 0.00 0.00 0.00 0.00 0.00 0.00 0.00 0.00 0.01 0.01 0.01 0.01 0.01 0.01 0.01 0.01 0.01 0.01 0.02 0.02 0.02 0.03 0.03 0.03 0.05 0.05 0.05 0.04 0.05 0.05 0.04 0.04 0.05
MSLP
1017.18 1016.86 1016.50 1016.09 1015.62 1015.10 1014.54 1013.96 1013.40 1012.87 1012.40 1012.00 1011.70 1011.47 1011.31 1011.21 1011.14 1011.09 1011.05 1011.01 1010.97 1010.93 1010.89 1010.87 1010.84 1010.82 1010.78 1010.72 1010.61 1010.45 1010.23 1009.95 1009.63 1009.27 1008.92 1008.61 1008.37 1008.22 1008.19 1008.27 1008.46 1008.73 1009.05
1017.72 1017.48 1017.19 1016.85 1016.45 1015.99 1015.49 1014.98 1014.47 1013.99 1013.56 1013.20 1012.92 1012.71 1012.57 1012.46 1012.39 1012.32 1012.24 1012.15 1012.05 1011.95 1011.84 1011.74 1011.65 1011.56 1011.48 1011.39 1011.27 1011.11 1010.89 1010.62 1010.29 1009.93 1009.55 1009.18 1008.86 1008.61 1008.45 1008.38 1008.42 1008.53 1008.70
1018.03 1017.85 1017.63 1017.35 1017.02 1016.64 1016.22 1015.78 1015.34 1014.93 1014.57 1014.26 1014.02 1013.85 1013.72 1013.63 1013.55 1013.47 1013.37 1013.26 1013.13 1012.98 1012.83 1012.69 1012.56 1012.45 1012.34 1012.24 1012.12 1011.97 1011.76 1011.50 1011.19 1010.81 1010.41 1009.99 1009.59 1009.24 1008.95 1008.74 1008.61 1008.54 1008.53
1018.16 1018.03 1017.86 1017.64 1017.37 1017.06 1016.72 1016.37 1016.01 1015.68 1015.38 1015.13 1014.93 1014.78 1014.67 1014.58 1014.50 1014.41 1014.31 1014.18 1014.03 1013.87 1013.71 1013.56 1013.42 1013.30 1013.20 1013.10 1012.99 1012.86 1012.68 1012.44 1012.13 1011.76 1011.35 1010.90 1010.44 1010.00 1009.60 1009.25 1008.96 1008.72 1008.53
1018.19 1018.10 1017.96 1017.79 1017.57 1017.33 1017.06 1016.78 1016.50 1016.24 1016.00 1015.80 1015.63 1015.49 1015.38 1015.28 1015.18 1015.07 1014.95 1014.81 1014.66 1014.50 1014.34 1014.20 1014.08 1013.97 1013.89 1013.81 1013.73 1013.61 1013.46 1013.25 1012.96 1012.61 1012.20 1011.74 1011.25 1010.76 1010.27 1009.81 1009.39 1009.01 1008.65
1018.22 1018.14 1018.03 1017.89 1017.71 1017.52 1017.31 1017.09 1016.88 1016.67 1016.48 1016.30 1016.14 1015.99 1015.86 1015.73 1015.60 1015.46 1015.31 1015.16 1015.00 1014.85 1014.70 1014.58 1014.48 1014.40 1014.33 1014.28 1014.21 1014.13 1013.99 1013.80 1013.55 1013.22 1012.83 1012.38 1011.89 1011.38 1010.85 1010.33 1009.82 1009.33 1008.85
1018.29 1018.23 1018.13 1018.01 1017.86 1017.70 1017.54 1017.37 1017.20 1017.03 1016.86 1016.69 1016.52 1016.35 1016.18 1016.00 1015.83 1015.64 1015.46 1015.29 1015.12 1014.97 1014.83 1014.72 1014.64 1014.57 1014.53 1014.48 1014.42 1014.34 1014.22 1014.05 1013.82 1013.53 1013.16 1012.74 1012.28 1011.77 1011.25 1010.71 1010.16 1009.61 1009.05
1018.41 1018.37 1018.28 1018.17 1018.05 1017.91 1017.78 1017.64 1017.50 1017.36 1017.20 1017.03 1016.84 1016.64 1016.42 1016.19 1015.96 1015.74 1015.52 1015.31 1015.13 1014.97 1014.83 1014.72 1014.63 1014.57 1014.51 1014.45 1014.38 1014.29 1014.17 1014.00 1013.78 1013.50 1013.17 1012.79 1012.36 1011.90 1011.40 1010.87 1010.32 1009.75 1009.16
1018.56 1018.53 1018.46 1018.36 1018.25 1018.13 1018.02 1017.91 1017.79 1017.66 1017.50 1017.33 1017.13 1016.89 1016.64 1016.37 1016.10 1015.84 1015.58 1015.35 1015.14 1014.96 1014.81 1014.68 1014.57 1014.48 1014.38 1014.29 1014.18 1014.05 1013.90 1013.71 1013.49 1013.22 1012.92 1012.57 1012.18 1011.75 1011.29 1010.79 1010.26 1009.69 1009.09
1018.67 1018.67 1018.61 1018.53 1018.43 1018.33 1018.23 1018.13 1018.03 1017.91 1017.77 1017.59 1017.38 1017.14 1016.87 1016.59 1016.29 1016.00 1015.73 1015.47 1015.24 1015.04 1014.85 1014.69 1014.53 1014.38 1014.22 1014.07 1013.89 1013.71 1013.51 1013.28 1013.04 1012.77 1012.47 1012.14 1011.78 1011.38 1010.95 1010.47 1009.95 1009.39 1008.79
1018.71 1018.73 1018.69 1018.62 1018.53 1018.44 1018.35 1018.27 1018.18 1018.08 1017.95 1017.79 1017.60 1017.37 1017.10 1016.82 1016.53 1016.24 1015.95 1015.69 1015.43 1015.20 1014.97 1014.75 1014.53 1014.31 1014.08 1013.84 1013.59 1013.33 1013.07 1012.80 1012.53 1012.24 1011.93 1011.60 1011.24 1010.85 1010.42 1009.94 1009.42 1008.85 1008.23
1018.64 1018.68 1018.66 1018.60 1018.53 1018.45 1018.37 1018.30 1018.22 1018.14 1018.03 1017.89 1017.73 1017.52 1017.29 1017.03 1016.76 1016.49 1016.21 1015.94 1015.67 1015.40 1015.13 1014.85 1014.56 1014.26 1013.94 1013.62 1013.29 1012.97 1012.65 1012.33 1012.01 1011.70 1011.37 1011.02 1010.64 1010.23 1009.77 1009.25 1008.69 1008.08 1007.43
1018.47 1018.53 1018.53 1018.48 1018.42 1018.34 1018.28 1018.21 1018.15 1018.08 1017.99 1017.88 1017.74 1017.57 1017.38 1017.16 1016.92 1016.67 1016.41 1016.14 1015.86 1015.57 1015.25 1014.92 1014.56 1014.18 1013.79 1013.40 1013.00 1012.62 1012.25 1011.89 1011.55 1011.20 1010.84 1010.46 1010.04 1009.57 1009.05 1008.47 1007.83 1007.15 1006.42
1018.24 1018.32 1018.33 1018.30 1018.24 1018.17 1018.11 1018.05 1017.99 1017.93 1017.85 1017.76 1017.64 1017.50 1017.34 1017.16 1016.95 1016.73 1016.49 1016.22 1015.94 1015.62 1015.27 1014.88 1014.47 1014.04 1013.59 1013.15 1012.71 1012.29 1011.90 1011.52 1011.15 1010.78 1010.39 1009.96 1009.48 1008.93 1008.32 1007.64 1006.90 1006.12 1005.31
1017.99 1018.09 1018.12 1018.10 1018.05 1017.99 1017.93 1017.86 1017.79 1017.73 1017.65 1017.55 1017.45 1017.32 1017.17 1017.01 1016.83 1016.62 1016.39 1016.13 1015.84 1015.50 1015.13 1014.71 1014.27 1013.80 1013.33 1012.86 1012.41 1011.98 1011.58 1011.20 1010.82 1010.43 1010.01 1009.53 1008.98 1008.35 1007.63 1006.84 1005.98 1005.09 1004.18
1017.78 1017.89 1017.94 1017.94 1017.90 1017.85 1017.78 1017.70 1017.62 1017.53 1017.43 1017.32 1017.20 1017.06 1016.91 1016.75 1016.57 1016.37 1016.14 1015.88 1015.59 1015.24 1014.86 1014.43 1013.98 1013.50 1013.03 1012.57 1012.13 1011.71 1011.32 1010.95 1010.57 1010.16 1009.71 1009.17 1008.55 1007.83 1007.01 1006.10 1005.14 1004.13 1003.13
1017.60 1017.74 1017.81 1017.83 1017.81 1017.76 1017.69 1017.61 1017.50 1017.39 1017.25 1017.10 1016.95 1016.78 1016.61 1016.43 1016.24 1016.03 1015.80 1015.54 1015.24 1014.90 1014.52 1014.10 1013.66 1013.20 1012.74 1012.30 1011.88 1011.49 1011.12 1010.75 1010.37 1009.95 1009.46 1008.87 1008.18 1007.38 1006.46 1005.46 1004.40 1003.32 1002.25
1017.46 1017.61 1017.71 1017.76 1017.77 1017.74 1017.67 1017.58 1017.45 1017.30 1017.13 1016.94 1016.74 1016.53 1016.32 1016.11 1015.90 1015.68 1015.45 1015.18 1014.89 1014.57 1014.20 1013.80 1013.38 1012.95 1012.52 1012.10 1011.71 1011.33 1010.97 1010.61 1010.21 1009.76 1009.23 1008.59 1007.84 1006.96 1005.98 1004.91 1003.79 1002.66 1001.57
1017.31 1017.49 1017.62 1017.70 1017.74 1017.73 1017.68 1017.58 1017.44 1017.27 1017.06 1016.83 1016.58 1016.33 1016.09 1015.85 1015.62 1015.39 1015.15 1014.89 1014.62 1014.31 1013.97 1013.59 1013.20 1012.79 1012.38 1011.98 1011.60 1011.23 1010.86 1010.47 1010.04 1009.55 1008.97 1008.28 1007.48 1006.55 1005.53 1004.43 1003.30 1002.17 1001.10
1017.13 1017.33 1017.49 1017.61 1017.68 1017.70 1017.67 1017.58 1017.43 1017.24 1017.01 1016.75 1016.47 1016.19 1015.92 1015.67 1015.42 1015.19 1014.95 1014.71 1014.45 1014.16 1013.84 1013.49 1013.11 1012.72 1012.31 1011.91 1011.52 1011.12 1010.71 1010.28 1009.81 1009.26 1008.63 1007.89 1007.05 1006.10 1005.07 1003.99 1002.89 1001.82 1000.82
1016.89 1017.11 1017.30 1017.45 1017.55 1017.60 1017.59 1017.52 1017.38 1017.19 1016.95 1016.67 1016.39 1016.10 1015.82 1015.55 1015.31 1015.08 1014.85 1014.62 1014.37 1014.09 1013.78 1013.44 1013.06 1012.66 1012.24 1011.81 1011.37 1010.93 1010.46 1009.97 1009.43 1008.82 1008.14 1007.37 1006.51 1005.57 1004.57 1003.55 1002.53 1001.56 1000.68
1016.61 1016.84 1017.04 1017.22 1017.35 1017.42 1017.43 1017.38 1017.26 1017.07 1016.84 1016.58 1016.29 1016.01 1015.74 1015.48 1015.24 1015.02 1014.80 1014.57 1014.33 1014.05 1013.73 1013.37 1012.96 1012.53 1012.06 1011.57 1011.07 1010.55 1010.01 1009.45 1008.84 1008.18 1007.46 1006.67 1005.83 1004.93 1004.00 1003.08 1002.18 1001.35 1000.61
1016.31 1016.54 1016.75 1016.94 1017.08 1017.17 1017.20 1017.16 1017.06 1016.90 1016.68 1016.44 1016.17 1015.91 1015.65 1015.41 1015.19 1014.97 1014.75 1014.51 1014.24 1013.93 1013.58 1013.17 1012.71 1012.21 1011.67 1011.11 1010.52 1009.92 1009.30 1008.66 1008.00 1007.30 1006.57 1005.80 1005.00 1004.18 1003.36 1002.57 1001.82 1001.15 1000.59
1016.04 1016.27 1016.47 1016.66 1016.80 1016.90 1016.93 1016.91 1016.82 1016.67 1016.48 1016.26 1016.03 1015.79 1015.55 1015.32 1015.10 1014.88 1014.64 1014.37 1014.06 1013.70 1013.27 1012.79 1012.25 1011.65 1011.02 1010.37 1009.69 1009.01 1008.32 1007.63 1006.93 1006.23 1005.52 1004.80 1004.08 1003.37 1002.68 1002.04 1001.46 1000.97 1000.58
1015.84 1016.05 1016.25 1016.42 1016.55 1016.64 1016.67 1016.65 1016.57 1016.44 1016.27 1016.07 1015.86 1015.64 1015.42 1015.20 1014.97 1014.73 1014.45 1014.13 1013.75 1013.31 1012.79 1012.21 1011.56 1010.87 1010.13 1009.38 1008.62 1007.87 1007.13 1006.41 1005.71 1005.03 1004.37 1003.73 1003.13 1002.55 1002.01 1001.54 1001.13 1000.81 1000.58
1015.71 1015.91 1016.09 1016.24 1016.36 1016.43 1016.45 1016.42 1016.33 1016.21 1016.06 1015.88 1015.69 1015.48 1015.27 1015.05 1014.80 1014.52 1014.19 1013.80 1013.34 1012.80 1012.17 1011.48 1010.72 1009.92 1009.09 1008.25 1007.42 1006.62 1005.85 1005.13 1004.46 1003.83 1003.25 1002.72 1002.24 1001.81 1001.43 1001.12 1000.87 1000.71 1000.62
Thickness
5507 5508 5510 5512 5514 5516 5518 5522 5527 5531 5536 5540 5543 5546 5547 5549 5552 5554 5557 5560 5563 5566 5570 5573 5576 5579 5581 5582 5583 5584 5584 5583 5586 5590 5590 5590 5590 5589 5588 5586 5585 5584 5583
5501 5501 5502 5504 5506 5507 5509 5512 5516 5521 5525 5529 5532 5534 5536 5538 5540 5543 5545 5547 5550 5553 5557 5559 5562 5565 5567 5569 5571 5571 5572 5573 5573 5576 5577 5576 5577 5577 5576 5574 5573 5573 5572
5497 5497 5497 5498 5499 5500 5501 5504 5508 5512 5515 5518 5520 5522 5524 5526 5528 5530 5532 5535 5537 5540 5543 5545 5548 5550 5552 5554 5555 5557 5558 5560 5560 5562 5563 5563 5563 5563 5562 5562 5561 5560 5560
5494 5493 5493 5492 5493 5494 5496 5498 5501 5503 5506 5507 5509 5511 5512 5514 5516 5518 5520 5522 5525 5527 5529 5531 5533 5535 5536 5539 5541 5542 5544 5546 5547 5548 5549 5548 5548 5548 5547 5547 5547 5546 5546
5490 5490 5489 5488 5489 5490 5491 5492 5494 5496 5497 5498 5499 5500 5501 5503 5504 5506 5508 5510 5512 5514 5516 5518 5519 5521 5522 5524 5526 5527 5529 5530 5532 5533 5534 5532 5532 5531 5531 5531 5531 5531 5531
5486 5485 5485 5484 5484 5485 5485 5486 5487 5488 5489 5489 5490 5490 5491 5492 5493 5496 5497 5499 5500 5501 5502 5503 5505 5507 5508 5509 5511 5512 5513 5514 5516 5518 5518 5518 5518 5517 5516 5515 5514 5512 5515
5482 5482 5481 5480 5480 5480 5480 5481 5480 5480 5480 5480 5481 5481 5481 5482 5483 5485 5487 5487 5487 5487 5488 5490 5491 5492 5492 5493 5495 5496 5496 5497 5499 5501 5502 5502 5502 5501 5500 5499 5498 5498 5500
5478 5477 5476 5475 5475 5474 5474 5473 5473 5472 5471 5471 5471 5471 5471 5471 5472 5474 5475 5474 5474 5474 5474 5475 5476 5476 5476 5477 5478 5478 5479 5480 5482 5483 5484 5485 5485 5485 5484 5484 5484 5483 5482
5473 5471 5470 5469 5469 5468 5467 5466 5465 5464 5463 5462 5461 5461 5460 5460 5461 5461 5461 5460 5460 5459 5459 5459 5459 5459 5460 5461 5461 5460 5462 5463 5463 5464 5464 5466 5467 5467 5466 5465 5463 5462 5464
5468 5466 5465 5464 5462 5461 5459 5458 5457 5456 5455 5454 5453 5451 5450 5449 5449 5448 5448 5446 5446 5445 5444 5443 5443 5443 5443 5442 5441 5441 5442 5444 5445 5446 5447 5448 5448 5448 5447 5446 5445 5444 5446
5464 5462 5460 5458 5456 5454 5452 5451 5449 5448 5446 5445 5443 5441 5439 5438 5436 5435 5434 5432 5431 5430 5429 5427 5426 5426 5425 5425 5424 5423 5423 5425 5426 5427 5428 5430 5430 5430 5430 5429 5428 5427 5428
5460 5457 5454 5452 5450 5448 5445 5443 5441 5439 5436 5434 5432 5430 5427 5425 5424 5422 5420 5418 5416 5414 5412 5410 5409 5409 5408 5408 5407 5406 5406 5407 5406 5407 5408 5410 5411 5412 5412 5412 5412 5412 5412
5454 5450 5447 5445 5442 5440 5437 5434 5431 5429 5425 5423 5420 5417 5414 5412 5409 5408 5405 5403 5401 5398 5396 5396 5395 5393 5392 5391 5390 5389 5388 5386 5386 5387 5389 5390 5392 5393 5394 5394 5395 5395 5396
5447 5443 5439 5436 5433 5431 5428 5425 5420 5417 5413 5410 5406 5403 5400 5397 5394 5392 5390 5387 5385 5383 5382 5381 5380 5378 5376 5374 5373 5370 5368 5367 5367 5368 5370 5371 5373 5375 5376 5376 5377 5378 5379
5440 5436 5432 5428 5424 5421 5417 5413 5410 5405 5401 5397 5393 5390 5386 5383 5381 5378 5375 5373 5370 5369 5368 5366 5363 5361 5359 5357 5355 5353 5350 5349 5349 5350 5351 5353 5356 5357 5358 5359 5360 5361 5363
5432 5428 5423 5418 5414 5411 5406 5403 5399 5395 5392 5388 5383 5379 5375 5371 5368 5365 5361 5359 5357 5355 5353 5349 5347 5344 5342 5340 5339 5336 5333 5332 5331 5332 5333 5334 5336 5338 5341 5343 5343 5345 5347
5424 5419 5413 5409 5404 5400 5395 5391 5387 5384 5380 5376 5372 5368 5363 5359 5355 5352 5348 5345 5343 5340 5335 5332 5330 5328 5326 5323 5321 5319 5317 5315 5314 5315 5316 5317 5319 5321 5323 5326 5328 5330 5332
5415 5410 5405 5399 5394 5389 5384 5379 5375 5371 5367 5362 5359 5355 5351 5346 5342 5339 5335 5332 5327 5324 5320 5317 5314 5312 5310 5307 5305 5304 5302 5301 5300 5301 5302 5303 5305 5306 5308 5311 5313 5315 5318
5406 5400 5394 5388 5383 5378 5373 5368 5363 5359 5354 5350 5346 5342 5338 5333 5329 5325 5321 5316 5312 5309 5305 5302 5299 5297 5294 5292 5291 5289 5288 5288 5288 5289 5289 5290 5292 5293 5295 5297 5300 5303 5305
5396 5391 5384 5378 5372 5367 5361 5356 5351 5346 5342 5337 5332 5328 5324 5319 5314 5310 5306 5302 5298 5294 5291 5288 5285 5282 5280 5279 5278 5277 5277 5277 5277 5278 5279 5280 5281 5282 5284 5286 5289 5291 5294
5385 5379 5375 5368 5362 5356 5350 5344 5339 5334 5329 5324 5319 5315 5313 5307 5301 5296 5292 5288 5284 5280 5277 5274 5272 5270 5268 5267 5266 5266 5266 5266 5267 5268 5269 5271 5272 5274 5276 5278 5280 5282 5284
5375 5369 5363 5357 5351 5345 5339 5333 5328 5322 5317 5312 5307 5303 5299 5293 5287 5283 5279 5275 5271 5267 5265 5262 5261 5259 5258 5257 5256 5256 5256 5257 5258 5259 5261 5263 5264 5267 5269 5271 5273 5275 5277
5365 5359 5353 5346 5340 5335 5328 5322 5316 5310 5305 5300 5295 5290 5285 5280 5275 5271 5267 5263 5259 5256 5254 5253 5251 5251 5249 5248 5248 5247 5248 5249 5251 5252 5254 5257 5259 5261 5263 5265 5267 5270 5273
5355 5349 5342 5336 5329 5323 5316 5310 5305 5300 5294 5289 5284 5278 5273 5269 5264 5260 5256 5252 5250 5247 5246 5244 5244 5243 5242 5242 5242 5242 5243 5244 5246 5248 5250 5252 5255 5257 5259 5262 5264 5267 5269
5344 5338 5332 5325 5318 5312 5305 5299 5294 5289 5283 5278 5273 5268 5263 5259 5254 5250 5247 5244 5242 5240 5239 5238 5237 5237 5236 5236 5237 5238 5240 5242 5244 5246 5249 5251 5253 5255 5257 5259 5262 5264 5267
5334 5328 5321 5314 5307 5301 5295 5289 5284 5279 5273 5269 5264 5259 5254 5250 5246 5242 5240 5237 5235 5234 5233 5233 5233 5232 5232 5232 5234 5235 5238 5241 5243 5246 5248 5250 5252 5254 5256 5258 5260 5262 5264